| time (UTC) | temp F | wind direction | speed MPH | gust MPH | rain 1hr in | rain 24hr in | rain mn in | humidity % | barometer mb |
| 20260510065410 | 51 | 93 | 1.0 | 2.0 | 0.00 | 0.00 | 0.00 | 98 | 998.9 |
| 20260510064906 | 51 | 85 | 1.0 | 2.0 | 0.00 | 0.00 | 0.00 | 98 | 999.4 |
| 20260510064404 | 51 | 97 | 1.0 | 2.0 | 0.00 | 0.00 | 0.00 | 98 | 999.6 |
| 20260510063900 | 51 | 95 | 2.0 | 2.0 | 0.00 | 0.00 | 0.00 | 98 | 999.6 |
| 20260510063357 | 51 | 93 | 1.0 | 1.0 | 0.00 | 0.00 | 0.00 | 98 | 999.7 |
| 20260510062854 | 51 | 89 | 2.0 | 2.0 | 0.00 | 0.00 | 0.00 | 98 | 999.9 |
| 20260510062349 | 51 | 125 | 1.0 | 1.0 | 0.00 | 0.00 | 0.00 | 98 | 1000.0 |
| 20260510061844 | 51 | 55 | 0.0 | 2.0 | 0.00 | 0.00 | 0.00 | 98 | 999.7 |
| 20260510061342 | 51 | 197 | 0.0 | 2.0 | 0.00 | 0.00 | 0.00 | 98 | 999.9 |
| 20260510060837 | 51 | 103 | 0.0 | 2.0 | 0.00 | 0.00 | 0.00 | 98 | 999.8 |
| 20260510060335 | 51 | 359 | 1.0 | 2.0 | 0.00 | 0.00 | 0.00 | 98 | 1000.0 |
| 20260510055832 | 51 | 229 | 0.0 | 1.0 | 0.00 | 0.00 | 0.00 | 97 | 1000.0 |
| 20260510055331 | 51 | 160 | 1.0 | 2.0 | 0.00 | 0.00 | 0.00 | 97 | 999.8 |
| 20260510054830 | 51 | 183 | 1.0 | 3.0 | 0.00 | 0.00 | 0.00 | 97 | 999.9 |
| 20260510054326 | 51 | 134 | 0.0 | 4.0 | 0.00 | 0.00 | 0.00 | 97 | 999.8 |
| 20260510053821 | 51 | 187 | 1.0 | 1.0 | 0.00 | 0.00 | 0.00 | 97 | 999.5 |
| 20260510053317 | 52 | 145 | 3.0 | 3.0 | 0.00 | 0.00 | 0.00 | 96 | 999.5 |
| 20260510052813 | 52 | 131 | 2.0 | 4.0 | 0.00 | 0.00 | 0.00 | 96 | 999.4 |
| 20260510052309 | 52 | 142 | 0.0 | 3.0 | 0.00 | 0.00 | 0.00 | 96 | 999.3 |
| 20260510051800 | 52 | 157 | 0.0 | 3.0 | 0.00 | 0.00 | 0.00 | 96 | 999.3 |
| 20260510051257 | 52 | 139 | 2.0 | 3.0 | 0.00 | 0.00 | 0.00 | 97 | 999.1 |
| 20260510050754 | 52 | 92 | 4.0 | 4.0 | 0.00 | 0.00 | 0.00 | 97 | 999.0 |
| 20260510050251 | 51 | 148 | 3.0 | 4.0 | 0.00 | 0.00 | 0.00 | 97 | 999.0 |
| 20260510045747 | 51 | 146 | 5.0 | 5.0 | 0.00 | 0.00 | 0.00 | 97 | 998.9 |
| 20260510045244 | 52 | 76 | 2.0 | 4.0 | 0.00 | 0.00 | 0.00 | 97 | 998.9 |
| 20260510044741 | 52 | 95 | 2.0 | 4.0 | 0.00 | 0.00 | 0.00 | 97 | 999.0 |
| 20260510044238 | 52 | 132 | 2.0 | 4.0 | 0.00 | 0.00 | 0.00 | 97 | 999.0 |
| 20260510043733 | 52 | 104 | 3.0 | 4.0 | 0.00 | 0.00 | 0.00 | 97 | 999.2 |
| 20260510043231 | 52 | 93 | 4.0 | 6.0 | 0.00 | 0.00 | 0.00 | 97 | 999.1 |
| 20260510042728 | 52 | 93 | 1.0 | 3.0 | 0.00 | 0.00 | 0.00 | 97 | 999.0 |
| 20260510042223 | 52 | 107 | 2.0 | 5.0 | 0.00 | 0.00 | 0.00 | 97 | 999.1 |
| 20260510041720 | 52 | 104 | 3.0 | 4.0 | 0.00 | 0.00 | 0.00 | 97 | 999.0 |
| 20260510041218 | 52 | 61 | 2.0 | 3.0 | 0.00 | 0.00 | 0.00 | 97 | 999.0 |
| 20260510040714 | 52 | 100 | 4.0 | 4.0 | 0.00 | 0.00 | 0.00 | 97 | 999.2 |
| 20260510040211 | 52 | 83 | 3.0 | 5.0 | 0.00 | 0.00 | 0.00 | 97 | 999.0 |
| 20260510035707 | 52 | 83 | 2.0 | 4.0 | 0.00 | 0.28 | 0.28 | 97 | 999.1 |
| 20260510035203 | 52 | 129 | 3.0 | 4.0 | 0.00 | 0.28 | 0.28 | 97 | 999.0 |
| 20260510034659 | 52 | 89 | 2.0 | 5.0 | 0.00 | 0.28 | 0.28 | 97 | 998.9 |
| 20260510034156 | 52 | 141 | 2.0 | 5.0 | 0.00 | 0.28 | 0.28 | 97 | 998.8 |
| 20260510033652 | 52 | 131 | 2.0 | 5.0 | 0.00 | 0.28 | 0.28 | 97 | 998.8 |
| 20260510033150 | 52 | 121 | 2.0 | 6.0 | 0.00 | 0.28 | 0.28 | 97 | 998.8 |
| 20260510032647 | 52 | 116 | 0.0 | 6.0 | 0.00 | 0.28 | 0.28 | 98 | 999.1 |
| 20260510032142 | 52 | 139 | 4.0 | 5.0 | 0.00 | 0.28 | 0.28 | 98 | 998.9 |
| 20260510031637 | 52 | 102 | 2.0 | 5.0 | 0.00 | 0.28 | 0.28 | 98 | 998.8 |
| 20260510031134 | 52 | 137 | 6.0 | 9.0 | 0.00 | 0.28 | 0.28 | 98 | 998.8 |
| 20260510030628 | 52 | 106 | 2.0 | 6.0 | 0.00 | 0.28 | 0.28 | 98 | 998.8 |
| 20260510030126 | 52 | 107 | 3.0 | 6.0 | 0.00 | 0.28 | 0.28 | 97 | 998.9 |
| 20260510025623 | 52 | 99 | 2.0 | 6.0 | 0.00 | 0.28 | 0.28 | 97 | 998.9 |
| 20260510025120 | 52 | 83 | 4.0 | 5.0 | 0.00 | 0.28 | 0.28 | 97 | 998.9 |
| 20260510024617 | 52 | 100 | 2.0 | 4.0 | 0.00 | 0.28 | 0.28 | 97 | 998.9 |
| 20260510024114 | 52 | 136 | 2.0 | 4.0 | 0.00 | 0.28 | 0.28 | 97 | 998.9 |
| 20260510023610 | 52 | 110 | 2.0 | 5.0 | 0.00 | 0.28 | 0.28 | 97 | 998.9 |
| 20260510023108 | 52 | 149 | 3.0 | 6.0 | 0.00 | 0.28 | 0.28 | 97 | 998.8 |
| 20260510022607 | 52 | 137 | 6.0 | 6.0 | 0.00 | 0.28 | 0.28 | 97 | 998.9 |
| 20260510022102 | 52 | 114 | 2.0 | 5.0 | 0.00 | 0.28 | 0.28 | 97 | 999.2 |
| 20260510021558 | 52 | 146 | 4.0 | 4.0 | 0.00 | 0.28 | 0.28 | 97 | 999.3 |
| 20260510021055 | 52 | 141 | 3.0 | 4.0 | 0.00 | 0.28 | 0.28 | 97 | 999.3 |
| 20260510020550 | 52 | 135 | 2.0 | 5.0 | 0.00 | 0.28 | 0.28 | 97 | 999.0 |
| 20260510020046 | 52 | 91 | 3.0 | 5.0 | 0.00 | 0.28 | 0.28 | 97 | 999.4 |
| 20260510015542 | 52 | 143 | 3.0 | 6.0 | 0.00 | 0.28 | 0.28 | 97 | 999.1 |
| 20260510015037 | 52 | 101 | 2.0 | 5.0 | 0.00 | 0.28 | 0.28 | 97 | 999.1 |
| 20260510014534 | 52 | 132 | 2.0 | 5.0 | 0.00 | 0.28 | 0.28 | 97 | 999.1 |
| 20260510014031 | 52 | 87 | 3.0 | 4.0 | 0.00 | 0.28 | 0.28 | 97 | 999.0 |
| 20260510013526 | 52 | 111 | 2.0 | 5.0 | 0.00 | 0.28 | 0.28 | 97 | 999.1 |
| 20260510013022 | 52 | 99 | 2.0 | 6.0 | 0.00 | 0.28 | 0.28 | 97 | 999.2 |
| 20260510012516 | 52 | 166 | 2.0 | 6.0 | 0.00 | 0.28 | 0.28 | 97 | 998.8 |
| 20260510012012 | 52 | 114 | 3.0 | 6.0 | 0.00 | 0.28 | 0.28 | 97 | 998.8 |
| 20260510011507 | 52 | 84 | 6.0 | 7.0 | 0.00 | 0.28 | 0.28 | 97 | 998.7 |
| 20260510011002 | 52 | 82 | 4.0 | 7.0 | 0.00 | 0.28 | 0.28 | 97 | 999.0 |
| 20260510010500 | 52 | 101 | 2.0 | 6.0 | 0.00 | 0.28 | 0.28 | 97 | 999.0 |
| 20260510005957 | 52 | 79 | 4.0 | 4.0 | 0.00 | 0.28 | 0.28 | 97 | 999.1 |
| 20260510005452 | 52 | 128 | 3.0 | 4.0 | 0.00 | 0.28 | 0.28 | 97 | 998.9 |
| 20260510004950 | 52 | 110 | 3.0 | 4.0 | 0.00 | 0.28 | 0.28 | 97 | 998.9 |
| 20260510004447 | 52 | 101 | 2.0 | 5.0 | 0.00 | 0.28 | 0.28 | 97 | 998.7 |
| 20260510003945 | 52 | 108 | 3.0 | 5.0 | 0.00 | 0.28 | 0.28 | 97 | 998.8 |
| 20260510003442 | 52 | 117 | 2.0 | 5.0 | 0.00 | 0.28 | 0.28 | 97 | 998.8 |
| 20260510002942 | 52 | 106 | 0.0 | 3.0 | 0.00 | 0.28 | 0.28 | 97 | 998.7 |
| 20260510002438 | 52 | 127 | 2.0 | 3.0 | 0.00 | 0.28 | 0.28 | 97 | 998.9 |
| 20260510001935 | 52 | 129 | 2.0 | 3.0 | 0.00 | 0.28 | 0.28 | 97 | 998.8 |
| 20260510001432 | 52 | 80 | 3.0 | 4.0 | 0.00 | 0.28 | 0.28 | 97 | 998.8 |
| 20260510000930 | 52 | 108 | 2.0 | 3.0 | 0.00 | 0.28 | 0.28 | 97 | 998.7 |
| 20260510000426 | 52 | 152 | 2.0 | 4.0 | 0.00 | 0.28 | 0.28 | 97 | 998.6 |
| 20260509235923 | 52 | 110 | 3.0 | 5.0 | 0.00 | 0.28 | 0.28 | 97 | 998.6 |
| 20260509235420 | 52 | 78 | 4.0 | 4.0 | 0.00 | 0.28 | 0.28 | 97 | 998.3 |
| 20260509234916 | 52 | 117 | 3.0 | 4.0 | 0.00 | 0.28 | 0.28 | 97 | 998.2 |
| 20260509234413 | 53 | 118 | 2.0 | 6.0 | 0.00 | 0.28 | 0.28 | 97 | 998.1 |
| 20260509233911 | 53 | 105 | 1.0 | 3.0 | 0.00 | 0.28 | 0.28 | 97 | 998.1 |
| 20260509233408 | 53 | 117 | 3.0 | 4.0 | 0.00 | 0.28 | 0.28 | 97 | 998.3 |
| 20260509232904 | 53 | 73 | 1.0 | 4.0 | 0.00 | 0.28 | 0.28 | 96 | 998.2 |
| 20260509232402 | 53 | 106 | 3.0 | 6.0 | 0.00 | 0.28 | 0.28 | 96 | 998.2 |
| 20260509231857 | 53 | 126 | 3.0 | 3.0 | 0.00 | 0.28 | 0.28 | 96 | 998.2 |
| 20260509231355 | 53 | 130 | 3.0 | 3.0 | 0.00 | 0.28 | 0.28 | 96 | 998.2 |
| 20260509230853 | 53 | 114 | 0.0 | 3.0 | 0.00 | 0.28 | 0.28 | 96 | 998.0 |
| 20260509230349 | 53 | 94 | 3.0 | 4.0 | 0.00 | 0.28 | 0.28 | 96 | 997.9 |
| 20260509225845 | 54 | 121 | 2.0 | 6.0 | 0.00 | 0.28 | 0.28 | 95 | 997.9 |
| 20260509225342 | 54 | 129 | 2.0 | 4.0 | 0.00 | 0.28 | 0.28 | 95 | 997.8 |
| 20260509224837 | 54 | 108 | 1.0 | 6.0 | 0.00 | 0.28 | 0.28 | 95 | 997.8 |
| 20260509224333 | 55 | 140 | 3.0 | 3.0 | 0.00 | 0.28 | 0.28 | 95 | 997.7 |
| 20260509223831 | 55 | 139 | 2.0 | 4.0 | 0.00 | 0.28 | 0.28 | 95 | 998.0 |
| 20260509223327 | 54 | 82 | 5.0 | 5.0 | 0.00 | 0.28 | 0.28 | 96 | 998.0 |
| 20260509222825 | 54 | 152 | 3.0 | 4.0 | 0.00 | 0.28 | 0.28 | 96 | 997.9 |
| 20260509222320 | 54 | 92 | 1.0 | 4.0 | 0.00 | 0.28 | 0.28 | 97 | 998.0 |
| 20260509221816 | 53 | 124 | 3.0 | 3.0 | 0.00 | 0.28 | 0.28 | 97 | 998.0 |
| 20260509221314 | 53 | 140 | 3.0 | 4.0 | 0.00 | 0.28 | 0.28 | 97 | 998.0 |
| 20260509220814 | 53 | 122 | 3.0 | 4.0 | 0.00 | 0.28 | 0.28 | 98 | 998.0 |
| 20260509220310 | 53 | 135 | 2.0 | 3.0 | 0.00 | 0.28 | 0.28 | 98 | 998.0 |
| 20260509215805 | 53 | 138 | 0.0 | 3.0 | 0.00 | 0.28 | 0.28 | 98 | 998.2 |
| 20260509215305 | 53 | 143 | 3.0 | 3.0 | 0.00 | 0.28 | 0.28 | 98 | 998.3 |
| 20260509214759 | 53 | 116 | 2.0 | 3.0 | 0.00 | 0.28 | 0.28 | 99 | 998.4 |
| 20260509214256 | 52 | 86 | 3.0 | 4.0 | 0.00 | 0.28 | 0.28 | 99 | 998.1 |
| 20260509213753 | 52 | 97 | 2.0 | 3.0 | 0.00 | 0.28 | 0.28 | 99 | 998.6 |
| 20260509213249 | 52 | 138 | 2.0 | 4.0 | 0.00 | 0.28 | 0.28 | 99 | 998.3 |
| 20260509212747 | 51 | 89 | 0.0 | 2.0 | 0.00 | 0.28 | 0.28 | 99 | 998.5 |
| 20260509212244 | 51 | 130 | 2.0 | 3.0 | 0.00 | 0.28 | 0.28 | 99 | 998.6 |
| 20260509211739 | 51 | 95 | 2.0 | 3.0 | 0.00 | 0.28 | 0.28 | 99 | 998.5 |
| 20260509211236 | 51 | 163 | 2.0 | 2.0 | 0.00 | 0.28 | 0.28 | 99 | 998.5 |
| 20260509210732 | 51 | 95 | 3.0 | 3.0 | 0.00 | 0.28 | 0.28 | 99 | 998.6 |
| 20260509210231 | 51 | 93 | 2.0 | 4.0 | 0.00 | 0.28 | 0.28 | 99 | 998.6 |
| 20260509205730 | 50 | 142 | 4.0 | 4.0 | 0.00 | 0.28 | 0.28 | 99 | 998.7 |
| 20260509205230 | 50 | 113 | 2.0 | 5.0 | 0.00 | 0.28 | 0.28 | 99 | 998.8 |
| 20260509204726 | 50 | 84 | 2.0 | 4.0 | 0.00 | 0.28 | 0.28 | 99 | 998.7 |
| 20260509204223 | 50 | 120 | 5.0 | 6.0 | 0.00 | 0.28 | 0.28 | 99 | 998.7 |
| 20260509203718 | 50 | 341 | 1.0 | 5.0 | 0.00 | 0.28 | 0.28 | 99 | 998.8 |
| 20260509203217 | 50 | 128 | 2.0 | 7.0 | 0.00 | 0.28 | 0.28 | 99 | 998.9 |
| 20260509202712 | 50 | 111 | 4.0 | 7.0 | 0.00 | 0.28 | 0.28 | 99 | 998.9 |
| 20260509202207 | 49 | 144 | 4.0 | 5.0 | 0.00 | 0.28 | 0.28 | 99 | 998.9 |
| 20260509201703 | 49 | 113 | 2.0 | 8.0 | 0.00 | 0.28 | 0.28 | 99 | 998.9 |
| 20260509201200 | 49 | 97 | 4.0 | 7.0 | 0.00 | 0.28 | 0.28 | 99 | 999.3 |
| 20260509200656 | 49 | 103 | 2.0 | 7.0 | 0.00 | 0.28 | 0.28 | 99 | 999.2 |
| 20260509200151 | 49 | 180 | 2.0 | 5.0 | 0.00 | 0.28 | 0.28 | 99 | 999.2 |
| 20260509195647 | 49 | 140 | 4.0 | 8.0 | 0.00 | 0.28 | 0.28 | 99 | 999.2 |
| 20260509195143 | 49 | 67 | 5.0 | 6.0 | 0.00 | 0.28 | 0.28 | 99 | 999.2 |
| 20260509194643 | 49 | 123 | 4.0 | 5.0 | 0.00 | 0.28 | 0.28 | 99 | 999.4 |
| 20260509194140 | 49 | 71 | 3.0 | 5.0 | 0.00 | 0.28 | 0.28 | 99 | 999.2 |
| 20260509193636 | 48 | 124 | 5.0 | 5.0 | 0.00 | 0.28 | 0.28 | 99 | 999.4 |
| 20260509193131 | 48 | 127 | 5.0 | 7.0 | 0.00 | 0.28 | 0.28 | 99 | 999.6 |
| 20260509192628 | 48 | 57 | 3.0 | 6.0 | 0.00 | 0.28 | 0.28 | 99 | 999.4 |
| 20260509192124 | 48 | 128 | 3.0 | 6.0 | 0.00 | 0.28 | 0.28 | 99 | 999.7 |
| 20260509191623 | 48 | 139 | 3.0 | 4.0 | 0.00 | 0.28 | 0.28 | 99 | 999.8 |
| 20260509191120 | 48 | 96 | 2.0 | 3.0 | 0.00 | 0.28 | 0.28 | 99 | 999.7 |
| 20260509190617 | 48 | 81 | 5.0 | 8.0 | 0.00 | 0.28 | 0.28 | 99 | 999.8 |
| 20260509190114 | 48 | 163 | 1.0 | 3.0 | 0.00 | 0.28 | 0.28 | 99 | 999.8 |
| 20260509185612 | 48 | 125 | 2.0 | 4.0 | 0.00 | 0.28 | 0.28 | 99 | 999.9 |
| 20260509185108 | 48 | 62 | 3.0 | 6.0 | 0.00 | 0.28 | 0.28 | 99 | 999.8 |
| 20260509184606 | 48 | 83 | 1.0 | 4.0 | 0.00 | 0.28 | 0.28 | 99 | 999.9 |
| 20260509184102 | 48 | 56 | 3.0 | 5.0 | 0.00 | 0.28 | 0.28 | 99 | 999.9 |
| 20260509183558 | 48 | 116 | 2.0 | 5.0 | 0.00 | 0.28 | 0.28 | 99 | 999.8 |
| 20260509183054 | 48 | 104 | 2.0 | 6.0 | 0.00 | 0.28 | 0.28 | 99 | 999.8 |
| 20260509182550 | 48 | 52 | 5.0 | 6.0 | 0.00 | 0.28 | 0.28 | 99 | 999.6 |
| 20260509182047 | 48 | 108 | 2.0 | 4.0 | 0.00 | 0.28 | 0.28 | 99 | 999.8 |
| 20260509181546 | 48 | 124 | 4.0 | 5.0 | 0.00 | 0.28 | 0.28 | 99 | 999.8 |
| 20260509181042 | 48 | 120 | 2.0 | 5.0 | 0.02 | 0.28 | 0.28 | 99 | 999.9 |
| 20260509180538 | 48 | 108 | 3.0 | 7.0 | 0.02 | 0.28 | 0.28 | 99 | 999.9 |
| 20260509180036 | 48 | 68 | 2.0 | 5.0 | 0.00 | 0.27 | 0.27 | 99 | 1000.0 |
| 20260509175531 | 48 | 80 | 4.0 | 5.0 | 0.00 | 0.27 | 0.27 | 99 | 999.8 |
| 20260509175028 | 48 | 80 | 3.0 | 4.0 | 0.02 | 0.27 | 0.27 | 99 | 1000.1 |
| 20260509174525 | 47 | 86 | 4.0 | 5.0 | 0.02 | 0.27 | 0.27 | 99 | 1000.1 |
| 20260509174020 | 47 | 109 | 3.0 | 5.0 | 0.02 | 0.27 | 0.27 | 99 | 1000.1 |
| 20260509173514 | 47 | 78 | 4.0 | 6.0 | 0.05 | 0.27 | 0.27 | 99 | 1000.2 |
| 20260509173011 | 47 | 132 | 2.0 | 5.0 | 0.02 | 0.26 | 0.26 | 99 | 1000.2 |
| 20260509172508 | 47 | 140 | 4.0 | 5.0 | 0.02 | 0.26 | 0.26 | 99 | 1000.3 |
| 20260509172003 | 47 | 123 | 4.0 | 5.0 | 0.02 | 0.26 | 0.26 | 99 | 1000.2 |
| 20260509171500 | 47 | 102 | 3.0 | 6.0 | 0.00 | 0.26 | 0.26 | 99 | 1000.2 |
| 20260509170956 | 47 | 89 | 1.0 | 4.0 | 0.02 | 0.26 | 0.26 | 99 | 1000.4 |
| 20260509170452 | 47 | 121 | 1.0 | 8.0 | 0.00 | 0.25 | 0.25 | 99 | 1000.2 |
| 20260509165947 | 47 | 126 | 2.0 | 5.0 | 0.02 | 0.25 | 0.25 | 99 | 1000.2 |
| 20260509165447 | 47 | 104 | 2.0 | 6.0 | 0.05 | 0.25 | 0.25 | 99 | 1000.4 |
| 20260509164943 | 47 | 128 | 4.0 | 6.0 | 0.02 | 0.25 | 0.25 | 99 | 1000.5 |
| 20260509164439 | 47 | 135 | 5.0 | 5.0 | 0.00 | 0.24 | 0.24 | 99 | 1000.7 |
| 20260509163935 | 47 | 101 | 4.0 | 5.0 | 0.00 | 0.24 | 0.24 | 99 | 1000.6 |
| 20260509163432 | 47 | 101 | 3.0 | 6.0 | 0.02 | 0.24 | 0.24 | 99 | 1000.5 |
| 20260509162931 | 47 | 129 | 4.0 | 6.0 | 0.02 | 0.24 | 0.24 | 99 | 1000.6 |
| 20260509162430 | 47 | 121 | 4.0 | 6.0 | 0.00 | 0.24 | 0.24 | 99 | 1000.7 |
| 20260509161926 | 47 | 43 | 2.0 | 5.0 | 0.02 | 0.24 | 0.24 | 99 | 1000.7 |
| 20260509161422 | 46 | 88 | 3.0 | 8.0 | 0.05 | 0.24 | 0.24 | 99 | 1000.9 |
| 20260509160918 | 46 | 116 | 9.0 | 10.0 | 0.05 | 0.24 | 0.24 | 99 | 1000.8 |
| 20260509160413 | 46 | 121 | 2.0 | 6.0 | 0.02 | 0.23 | 0.23 | 99 | 1000.9 |
| 20260509155909 | 46 | 22 | 4.0 | 6.0 | 0.02 | 0.23 | 0.23 | 99 | 1001.0 |
| 20260509155406 | 46 | 131 | 2.0 | 4.0 | 0.02 | 0.22 | 0.22 | 99 | 1001.1 |
| 20260509154902 | 46 | 103 | 3.0 | 6.0 | 0.05 | 0.22 | 0.22 | 99 | 1001.3 |
| 20260509154359 | 46 | 79 | 4.0 | 6.0 | 0.02 | 0.22 | 0.22 | 99 | 1001.2 |
| 20260509153855 | 46 | 43 | 0.0 | 3.0 | 0.02 | 0.22 | 0.22 | 99 | 1001.3 |
| 20260509153353 | 46 | 41 | 2.0 | 8.0 | 0.02 | 0.21 | 0.21 | 99 | 1001.4 |
| 20260509152850 | 46 | 82 | 3.0 | 6.0 | 0.05 | 0.21 | 0.21 | 99 | 1001.6 |
| 20260509152345 | 45 | 238 | 2.0 | 7.0 | 0.02 | 0.21 | 0.21 | 99 | 1001.6 |
| 20260509151843 | 46 | 105 | 2.0 | 4.0 | 0.02 | 0.20 | 0.20 | 99 | 1001.6 |
| 20260509151339 | 45 | 128 | 1.0 | 5.0 | 0.02 | 0.20 | 0.20 | 99 | 1001.7 |
| 20260509150837 | 45 | 92 | 2.0 | 3.0 | 0.05 | 0.20 | 0.20 | 99 | 1001.8 |
| 20260509150335 | 45 | 139 | 3.0 | 4.0 | 0.05 | 0.19 | 0.19 | 99 | 1001.8 |
| 20260509145832 | 45 | 40 | 2.0 | 4.0 | 0.07 | 0.19 | 0.19 | 99 | 1001.9 |
| 20260509145327 | 45 | 107 | 2.0 | 4.0 | 0.07 | 0.18 | 0.18 | 99 | 1001.9 |
| 20260509144823 | 44 | 245 | 0.0 | 4.0 | 0.07 | 0.18 | 0.18 | 98 | 1001.6 |
| 20260509144320 | 45 | 117 | 2.0 | 3.0 | 0.07 | 0.17 | 0.17 | 98 | 1001.7 |
| 20260509143817 | 44 | 100 | 4.0 | 7.0 | 0.05 | 0.17 | 0.17 | 98 | 1001.6 |
| 20260509143315 | 45 | 126 | 4.0 | 6.0 | 0.07 | 0.16 | 0.16 | 98 | 1001.6 |
| 20260509142811 | 45 | 135 | 5.0 | 8.0 | 0.09 | 0.16 | 0.16 | 98 | 1001.6 |
| 20260509142307 | 45 | 137 | 4.0 | 4.0 | 0.09 | 0.15 | 0.15 | 98 | 1001.5 |
| 20260509141802 | 44 | 131 | 4.0 | 5.0 | 0.07 | 0.14 | 0.14 | 98 | 1001.6 |
| 20260509141300 | 44 | 66 | 4.0 | 6.0 | 0.07 | 0.13 | 0.13 | 98 | 1001.8 |
| 20260509140756 | 44 | 130 | 4.0 | 4.0 | 0.09 | 0.13 | 0.13 | 98 | 1001.7 |
| 20260509140254 | 44 | 104 | 3.0 | 4.0 | 0.09 | 0.12 | 0.12 | 98 | 1001.8 |
| 20260509135752 | 44 | 136 | 3.0 | 6.0 | 0.07 | 0.11 | 0.11 | 98 | 1001.6 |
| 20260509135249 | 44 | 126 | 4.0 | 6.0 | 0.07 | 0.11 | 0.11 | 97 | 1001.7 |
| 20260509134746 | 44 | 86 | 3.0 | 6.0 | 0.09 | 0.10 | 0.10 | 97 | 1001.9 |
| 20260509134243 | 44 | 126 | 2.0 | 6.0 | 0.07 | 0.09 | 0.09 | 97 | 1001.8 |
| 20260509133740 | 44 | 111 | 2.0 | 4.0 | 0.07 | 0.09 | 0.09 | 97 | 1001.7 |
| 20260509133237 | 44 | 116 | 2.0 | 4.0 | 0.07 | 0.08 | 0.08 | 97 | 1001.9 |
| 20260509132736 | 44 | 78 | 2.0 | 2.0 | 0.05 | 0.07 | 0.07 | 97 | 1001.7 |
| 20260509132234 | 44 | 96 | 2.0 | 4.0 | 0.07 | 0.07 | 0.07 | 97 | 1001.9 |
| 20260509131730 | 44 | 128 | 2.0 | 3.0 | 0.07 | 0.06 | 0.06 | 96 | 1001.8 |
| 20260509131227 | 44 | 111 | 2.0 | 5.0 | 0.05 | 0.06 | 0.06 | 96 | 1001.9 |
| 20260509130723 | 44 | 104 | 2.0 | 3.0 | 0.02 | 0.05 | 0.05 | 96 | 1001.9 |
| 20260509130219 | 44 | 91 | 3.0 | 3.0 | 0.02 | 0.05 | 0.05 | 96 | 1001.9 |
| 20260509125715 | 44 | 121 | 3.0 | 4.0 | 0.02 | 0.04 | 0.04 | 96 | 1002.0 |
| 20260509125213 | 43 | 97 | 3.0 | 4.0 | 0.02 | 0.04 | 0.04 | 96 | 1002.0 |
| 20260509124709 | 44 | 95 | 2.0 | 4.0 | 0.05 | 0.04 | 0.04 | 96 | 1002.1 |
| 20260509124206 | 43 | 79 | 1.0 | 3.0 | 0.05 | 0.04 | 0.04 | 95 | 1001.8 |
| 20260509123704 | 43 | 77 | 3.0 | 6.0 | 0.02 | 0.03 | 0.03 | 95 | 1002.0 |
| 20260509123200 | 43 | 128 | 3.0 | 4.0 | 0.02 | 0.03 | 0.03 | 95 | 1002.1 |
| 20260509122656 | 43 | 91 | 3.0 | 5.0 | 0.05 | 0.03 | 0.03 | 95 | 1002.1 |
| 20260509122153 | 43 | 107 | 5.0 | 5.0 | 0.02 | 0.02 | 0.02 | 95 | 1002.0 |
| 20260509121649 | 43 | 86 | 2.0 | 5.0 | 0.00 | 0.02 | 0.02 | 94 | 1002.1 |
| 20260509121148 | 43 | 68 | 4.0 | 4.0 | 0.02 | 0.02 | 0.02 | 94 | 1002.1 |
| 20260509120646 | 43 | 94 | 2.0 | 3.0 | 0.02 | 0.02 | 0.02 | 94 | 1002.0 |
| 20260509120143 | 43 | 78 | 4.0 | 5.0 | 0.02 | 0.02 | 0.02 | 93 | 1001.9 |
| 20260509115640 | 43 | 101 | 3.0 | 5.0 | 0.02 | 0.01 | 0.01 | 93 | 1001.9 |
| 20260509115138 | 43 | 116 | 4.0 | 6.0 | 0.05 | 0.01 | 0.01 | 92 | 1001.9 |
| 20260509114636 | 43 | 78 | 4.0 | 6.0 | 0.02 | 0.01 | 0.01 | 92 | 1002.0 |
| 20260509114135 | 43 | 153 | 4.0 | 5.0 | 0.02 | 0.00 | 0.00 | 91 | 1002.0 |
| 20260509113633 | 43 | 73 | 4.0 | 6.0 | 0.02 | 0.00 | 0.00 | 90 | 1002.0 |
| 20260509113130 | 44 | 120 | 7.0 | 7.0 | 0.00 | 0.00 | 0.00 | 89 | 1002.2 |
| 20260509112626 | 44 | 97 | 2.0 | 6.0 | 0.00 | 0.00 | 0.00 | 88 | 1001.9 |
| 20260509112124 | 44 | 92 | 4.0 | 8.0 | 0.00 | 0.00 | 0.00 | 86 | 1002.1 |
| 20260509111620 | 44 | 124 | 4.0 | 8.0 | 0.00 | 0.00 | 0.00 | 85 | 1002.0 |
| 20260509111117 | 44 | 119 | 4.0 | 6.0 | 0.00 | 0.00 | 0.00 | 85 | 1002.3 |
| 20260509110614 | 44 | 95 | 5.0 | 6.0 | 0.00 | 0.00 | 0.00 | 85 | 1002.1 |
| 20260509110112 | 44 | 96 | 3.0 | 6.0 | 0.00 | 0.00 | 0.00 | 85 | 1001.9 |
| 20260509105609 | 44 | 79 | 5.0 | 7.0 | 0.00 | 0.00 | 0.00 | 85 | 1002.0 |
| 20260509105107 | 44 | 110 | 7.0 | 11.0 | 0.00 | 0.00 | 0.00 | 86 | 1001.6 |
| 20260509104603 | 43 | 94 | 4.0 | 8.0 | 0.00 | 0.00 | 0.00 | 86 | 1001.7 |
| 20260509104100 | 43 | 79 | 3.0 | 5.0 | 0.00 | 0.00 | 0.00 | 87 | 1001.6 |
| 20260509103558 | 42 | 135 | 7.0 | 8.0 | 0.00 | 0.00 | 0.00 | 89 | 1001.7 |
| 20260509103056 | 42 | 106 | 2.0 | 6.0 | 0.00 | 0.00 | 0.00 | 90 | 1001.7 |
| 20260509102553 | 41 | 129 | 5.0 | 6.0 | 0.00 | 0.00 | 0.00 | 90 | 1001.8 |
| 20260509102050 | 41 | 99 | 6.0 | 6.0 | 0.00 | 0.00 | 0.00 | 92 | 1001.7 |
| 20260509101546 | 40 | 106 | 2.0 | 4.0 | 0.00 | 0.00 | 0.00 | 93 | 1001.8 |
| 20260509101043 | 40 | 102 | 3.0 | 4.0 | 0.00 | 0.00 | 0.00 | 93 | 1002.2 |
| 20260509100540 | 39 | 88 | 3.0 | 3.0 | 0.00 | 0.00 | 0.00 | 94 | 1002.1 |
| 20260509100038 | 39 | 111 | 3.0 | 5.0 | 0.00 | 0.00 | 0.00 | 94 | 1002.3 |
| 20260509095534 | 38 | 72 | 3.0 | 3.0 | 0.00 | 0.00 | 0.00 | 94 | 1002.2 |
| 20260509095032 | 38 | 70 | 1.0 | 2.0 | 0.00 | 0.00 | 0.00 | 94 | 1002.1 |
| 20260509094528 | 37 | 89 | 1.0 | 3.0 | 0.00 | 0.00 | 0.00 | 94 | 1002.3 |
| 20260509094025 | 37 | 86 | 3.0 | 4.0 | 0.00 | 0.00 | 0.00 | 94 | 1002.0 |
| 20260509093523 | 37 | 77 | 3.0 | 4.0 | 0.00 | 0.00 | 0.00 | 94 | 1002.1 |
| 20260509093021 | 37 | 140 | 3.0 | 4.0 | 0.00 | 0.00 | 0.00 | 94 | 1002.2 |
| 20260509092518 | 37 | 117 | 2.0 | 4.0 | 0.00 | 0.00 | 0.00 | 94 | 1002.3 |
| 20260509092017 | 37 | 50 | 2.0 | 3.0 | 0.00 | 0.00 | 0.00 | 94 | 1002.5 |
| 20260509091514 | 37 | 79 | 2.0 | 2.0 | 0.00 | 0.00 | 0.00 | 94 | 1002.6 |
| 20260509091010 | 37 | 74 | 1.0 | 3.0 | 0.00 | 0.00 | 0.00 | 95 | 1002.4 |
| 20260509090508 | 37 | 80 | 0.0 | 2.0 | 0.00 | 0.00 | 0.00 | 95 | 1002.5 |
| 20260509090006 | 36 | 64 | 2.0 | 3.0 | 0.00 | 0.00 | 0.00 | 95 | 1002.6 |
| 20260509085502 | 36 | 77 | 2.0 | 2.0 | 0.00 | 0.00 | 0.00 | 95 | 1002.4 |
| 20260509084958 | 36 | 81 | 3.0 | 4.0 | 0.00 | 0.00 | 0.00 | 95 | 1002.6 |
| 20260509084455 | 36 | 71 | 2.0 | 3.0 | 0.00 | 0.00 | 0.00 | 95 | 1002.5 |
| 20260509083952 | 36 | 78 | 1.0 | 3.0 | 0.00 | 0.00 | 0.00 | 96 | 1002.6 |
| 20260509083450 | 36 | 68 | 3.0 | 4.0 | 0.00 | 0.00 | 0.00 | 96 | 1002.3 |
| 20260509082946 | 35 | 86 | 2.0 | 4.0 | 0.00 | 0.00 | 0.00 | 96 | 1002.4 |
| 20260509082444 | 35 | 66 | 3.0 | 4.0 | 0.00 | 0.00 | 0.00 | 96 | 1002.5 |
| 20260509081941 | 35 | 50 | 3.0 | 4.0 | 0.00 | 0.00 | 0.00 | 96 | 1002.5 |
| 20260509081438 | 35 | 67 | 2.0 | 3.0 | 0.00 | 0.00 | 0.00 | 96 | 1002.3 |
| 20260509080935 | 35 | 58 | 3.0 | 3.0 | 0.00 | 0.00 | 0.00 | 96 | 1002.2 |
| 20260509080433 | 35 | 35 | 3.0 | 4.0 | 0.00 | 0.00 | 0.00 | 95 | 1002.3 |
| 20260509075931 | 34 | 46 | 3.0 | 5.0 | 0.00 | 0.00 | 0.00 | 95 | 1002.1 |
| 20260509075427 | 34 | 69 | 3.0 | 4.0 | 0.00 | 0.00 | 0.00 | 95 | 1002.3 |
| 20260509074926 | 34 | 47 | 3.0 | 5.0 | 0.00 | 0.00 | 0.00 | 95 | 1002.1 |
| 20260509074423 | 34 | 59 | 2.0 | 4.0 | 0.00 | 0.00 | 0.00 | 95 | 1002.1 |
| 20260509073919 | 34 | 68 | 2.0 | 4.0 | 0.00 | 0.00 | 0.00 | 95 | 1001.9 |
| 20260509073415 | 34 | 76 | 4.0 | 5.0 | 0.00 | 0.00 | 0.00 | 95 | 1002.2 |
| 20260509072912 | 34 | 68 | 4.0 | 4.0 | 0.00 | 0.00 | 0.00 | 95 | 1002.2 |
| 20260509072409 | 34 | 75 | 3.0 | 3.0 | 0.00 | 0.00 | 0.00 | 95 | 1002.4 |
| 20260509071905 | 34 | 43 | 3.0 | 4.0 | 0.00 | 0.00 | 0.00 | 95 | 1002.2 |
| 20260509071402 | 34 | 67 | 3.0 | 4.0 | 0.00 | 0.00 | 0.00 | 95 | 1002.2 |
| 20260509070900 | 34 | 81 | 3.0 | 4.0 | 0.00 | 0.00 | 0.00 | 94 | 1002.1 |
| 20260509070356 | 34 | 75 | 2.0 | 3.0 | 0.00 | 0.00 | 0.00 | 94 | 1002.2 |
| 20260509065852 | 34 | 68 | 3.0 | 4.0 | 0.00 | 0.00 | 0.00 | 94 | 1002.2 |